STARLINK-38149, 100169

Orbit data source: Space-Track

STARLINK-38149, 100169 is a payload satellite owned by SpaceX/Seattle (US) in SSO that was launched on Sat, 25 Jul 2026 UTC launched from the Air Force Western Test Range (AFWTR). Payload-class satellites include a variety of spacecraft equipped with specific instruments for various scientific and technological missions. These include communications satellites like Starlink; space stations such as the ISS; scientific satellites like the Hubble; Earth observation satellites from companies like Planet Labs, Umbra, and HawkEye 360; GPS; miniature CubeSats for education and research; and military/defense satellites.

Loading next visibility...
Identifier
100169, 2026-171X
Orbit
SSO
Country
Flag of USUS
Related business
Manufacturer
SpaceX/Seattle
Mission
Operational spacecraft
Bus & Motor
STARLINK V2MO, Unknown motor
Mass
575 kg wet, ~530 kg dry
Launch date (UTC)
2026-07-25 (2 weeks ago)
Launch vehicle
Unknown
Launch site
Air Force Western Test Range (AFWTR)
Object type
Payload
Rocket body
Debris
Shape & HBR
BOX + PAN, 17.7 m
Radar Cross Section
RCS unknown

Expand to show TLE details & history
Last TLE update: 17 hours ago

TLE from 17 hours ago
0 STARLINK-38149
1 A0169U 26171X   26219.33594225  .00175803  00000-0  89731-3 0  9991
2 A0169  97.2852 250.8223 0002411 110.4990 249.6538 15.80884408  3269
Epoch: 2026-08-07T08:03Z
TLE epoch observation values (Epoch: 2026-08-07T08:03:45.410Z)
Latitude
0.00006°
Longitude
174.01998°
Altitude
331.677 km
Speed
7.709 km/s
True Right ascension
16h 43m 17s
True Declination
0° 00' 00"
Sunlit
Object was in full shadow at epoch
Visualization orbit readout
Latitude
Unknown
Longitude
Unknown
Altitude
Unknown
Speed
Unknown
Apparent Right ascension
Unknown
Apparent Declination
Unknown
Sunlit
N/A
Visualization observer readout
Local Sidereal Time
15:24:39
Azimuth
Unknown
Elevation
Unknown
Doppler factor
Unknown
Orbital elements
Apogee altitude
326.434 km
Perigee altitude
323.202 km
Semi-major axis
6,702.955 km
Eccentricity
0.00024
Inclination
97.2852°
RAAN
250.8223°
Arg. of periapsis
110.499°
True anomaly
249.6279°
Mean anomaly
249.6538°
Eccentric anomaly
249.64085°
Mean motion
3.95497 °/min
Orbital period
91.02 mins
BSTAR
0.00089731
Loading maneuver chart data...
Computing Atmospheric mass density...
Loading historical data...
Loading historical data...
Loading historical data...
Loading historical data...
Loading historical data...
Loading historical data...
Loading historical data...

Documentation

Showing up to 5 results
|